Weerstation Grootegast  Weerstation Grootegast


15 daagse weersverwachting Lyon (FR)

  • Overzicht
  • Per uur
  • 15 dagen
  • Extra
  • Vergelijk
  • Kaarten
  • Dagkaart
  • Meer »
  • Info
  • Statistieken
  • Directe link
    Temp 6h Neerslag Wind  
 07:28     19:39    Daglengte: 12:11 Vandaag
02:00
17°
 
1
08:00
16°
2.2 mm
1
14:00
23°
3.7 mm
1
warningclass
20:00
21°
0.7 mm
1
 07:30     19:37    Daglengte: 12:07 Morgen
02:00
17°
 
1
08:00
16°
1.1 mm
1
warningclass
14:00
22°
0.9 mm
2
20:00
19°
1.8 mm
2
warningclass
 07:31     19:35    Daglengte: 12:04 Woensdag 23 Sep
02:00
17°
24.7 mm
2
warningclass
08:00
16°
39.6 mm
1
14:00
22°
45.1 mm
2
20:00
20°
 
3
Locatie info
Region: Rhône-Alpes
Latitude: 45.7594°N
Longitude: 4.8290°E
173 masl
Postcode: 69002
Temp/Neerslag /Baro Onweer/Dauwpunt
    Temp Baro 1h Neerslag Dauwpunt Wind UV Bewolking  
 07:28     19:39    Daglengte: 12:11 Vandaag
02:00
17°
1015.5 hPa
47%
15.9°
1
Windvlaag: -0.1 m/s
53%
03:00
17°
1015.2 hPa
76%
15.7°
1
Windvlaag: -0.1 m/s
47%
04:00
16°
1015.2 hPa
78%
15.7°
1
Windvlaag: 0.2 m/s
55%
05:00
16°
1015.4 hPa 0.6 mm
78%
15.7°
1
Windvlaag: 0.4 m/s
64%
06:00
16°
1015.3 hPa 0.7 mm
78%
15.8°
1
Windvlaag: 0.3 m/s
78% warningclass
07:00
16°
1015.5 hPa 0.5 mm
80%
15.5°
1
Windvlaag: 0.3 m/s
78%
08:00
16°
1015.8 hPa 0.4 mm
82%
15.5°
1
Windvlaag: 0.2 m/s
79%
09:00
17°
1016.1 hPa 0.8 mm
82%
15.4°
1
Windvlaag: -0.2 m/s
79%
10:00
18°
1016.2 hPa 0.7 mm
82%
15.2°
1
Windvlaag: -0.3 m/s
75% warningclass
11:00
19°
1016.3 hPa 0.6 mm
82%
15.1°
1
Windvlaag: -0.6 m/s
61% warningclass
12:00
21°
1016.0 hPa 0.6 mm
82%
14.9°
1
Windvlaag: -0.6 m/s
44% warningclass
13:00
22°
1015.8 hPa 0.6 mm
82%
15.0°
0
Windvlaag: -0.7 m/s
36% warningclass
14:00
23°
1015.1 hPa 0.4 mm
82%
14.5°
1
Windvlaag: -0.3 m/s
37% warningclass
15:00
24°
1014.4 hPa
82%
13.8°
1
Windvlaag: -0.2 m/s
41%
16:00
24°
1014.1 hPa
82%
14.9°
1
Windvlaag: -0.5 m/s
32%
17:00
23°
1014.0 hPa 0.2 mm
78%
15.2°
1
Windvlaag: -0.5 m/s
35%
18:00
23°
1013.9 hPa 0.4 mm
68%
14.5°
1
Windvlaag: -0.7 m/s
50%
19:00
22°
1014.0 hPa
15%
15.6°
1
Windvlaag: -0.7 m/s
58%
20:00
21°
1014.1 hPa
14%
15.7°
1
Windvlaag: -0.6 m/s
67%
21:00
20°
1014.4 hPa
14%
15.8°
1
Windvlaag: -0.2 m/s
60%
22:00
19°
1014.6 hPa
14%
15.9°
1
Windvlaag: 0.2 m/s
53%
23:00
18°
1014.7 hPa
14%
16.1°
1
Windvlaag: 0.2 m/s
56%
 07:30     19:37    Daglengte: 12:07 Morgen
00:00
18°
1014.6 hPa
14%
16.3°
1
Windvlaag: 0 m/s
49%
01:00
17°
1014.5 hPa
64%
16.2°
1
Windvlaag: -0 m/s
40%
02:00
17°
1014.2 hPa
71%
15.8°
1
Windvlaag: 0.2 m/s
34%
03:00
16°
1014.1 hPa
74%
15.6°
1
Windvlaag: 0.2 m/s
38%
04:00
16°
1013.8 hPa
72%
15.4°
1
Windvlaag: 0.4 m/s
43%
05:00
16°
1013.5 hPa
70%
15.2°
1
Windvlaag: 0.4 m/s
40%
06:00
16°
1013.5 hPa
41%
15.0°
0
Windvlaag: 0.4 m/s
42%
07:00
16°
1013.7 hPa 0.5 mm
82%
15.0°
1
Windvlaag: 0.4 m/s
72%
08:00
16°
1013.9 hPa 0.5 mm
82%
15.2°
1
Windvlaag: 0.2 m/s
73% warningclass
09:00
17°
1014.0 hPa 0.5 mm
82%
15.4°
1
Windvlaag: 0.3 m/s
68%
10:00
18°
1014.0 hPa 0.4 mm
81%
15.2°
1
Windvlaag: 0.2 m/s
52%
11:00
19°
1013.7 hPa
76%
15.1°
1
Windvlaag: 1.3 m/s
42%
12:00
21°
1013.3 hPa
75%
14.5°
1
Windvlaag: 1.4 m/s
25%
13:00
22°
1012.6 hPa
41%
14.2°
1
Windvlaag: 1.5 m/s
35%
14:00
22°
1011.8 hPa
80%
14.6°
2
Windvlaag: 2 m/s
45%
15:00
23°
1011.1 hPa
80%
14.7°
1
Windvlaag: 1.9 m/s
46%
16:00
23°
1010.6 hPa 0.8 mm
81%
13.8°
2
Windvlaag: 1.6 m/s
73%
17:00
22°
1010.2 hPa 0.7 mm
82%
16.1°
2
Windvlaag: 1.7 m/s
64%
18:00
21°
1010.1 hPa
80%
16.0°
2
Windvlaag: 1.3 m/s
70%
19:00
20°
1010.1 hPa 0.4 mm
75%
16.8°
2
Windvlaag: 1.8 m/s
77% warningclass
20:00
19°
1010.4 hPa
62%
16.7°
2
Windvlaag: 2.4 m/s
82%
21:00
19°
1010.8 hPa
18%
16.4°
3
Windvlaag: 2.7 m/s
77%
22:00
18°
1011.1 hPa
15%
16.4°
2
Windvlaag: 1.7 m/s
78%
23:00
18°
1011.4 hPa 5.6 mm
28%
16.4°
2
Windvlaag: 1.2 m/s
86%
 07:31     19:35    Daglengte: 12:04 Woensdag 23 Sep
00:00
17°
1011.3 hPa 6.0 mm
33%
16.5°
1
Windvlaag: 1.5 m/s
82%
01:00
17°
1011.2 hPa 6.2 mm
94%
16.4°
2
Windvlaag: 1.4 m/s
85%
02:00
17°
1011.1 hPa 6.9 mm
100%
16.1°
2
Windvlaag: 1.8 m/s
73% warningclass
03:00
17°
1011.0 hPa 7.0 mm
100%
15.8°
1
Windvlaag: 1.6 m/s
80% warningclass
04:00
17°
1010.8 hPa 6.8 mm
100%
15.6°
1
Windvlaag: 1.5 m/s
74% warningclass
05:00
16°
1010.7 hPa 6.4 mm
100%
15.3°
1
Windvlaag: 1.6 m/s
66%
06:00
16°
1010.8 hPa 6.5 mm
100%
15.1°
2
Windvlaag: 1.6 m/s
68%
07:00
16°
1010.8 hPa 6.5 mm
98%
15.0°
1
Windvlaag: 1.4 m/s
67%
08:00
16°
1011.0 hPa 6.4 mm
97%
14.8°
1
Windvlaag: 1.2 m/s
53%
09:00
17°
1010.9 hPa 10.5 mm
93%
15.0°
1
Windvlaag: 0.5 m/s
42%
10:00
18°
1011.0 hPa 10.5 mm
50%
15.5°
1
Windvlaag: 0.3 m/s
27%
11:00
19°
1011.0 hPa 6.4 mm
87%
14.9°
1
Windvlaag: 0.2 m/s
33%
12:00
20°
1010.8 hPa 11.2 mm
95%
14.5°
1
Windvlaag: 0.3 m/s
30%
13:00
21°
1010.2 hPa
92%
14.1°
2
Windvlaag: 0.4 m/s
31%
14:00
22°
1009.7 hPa 6.5 mm
92%
13.8°
2
Windvlaag: 0.6 m/s
13%
15:00
22°
1009.1 hPa
88%
13.6°
2
Windvlaag: 4.1 m/s
13%
16:00
22°
1008.7 hPa
44%
13.5°
2
Windvlaag: 5.2 m/s
13%
17:00
22°
1008.2 hPa
34%
13.6°
3
Windvlaag: 5.1 m/s
24%
18:00
22°
1007.8 hPa
78%
13.6°
3
Windvlaag: 4.1 m/s
22%
19:00
21°
1007.5 hPa
69%
13.4°
3
Windvlaag: 5.9 m/s
21%
20:00
20°
1007.3 hPa
21%
13.0°
3
Windvlaag: 1 m/s
21%
21:00
20°
1007.6 hPa
21%
12.8°
3
Windvlaag: 6 m/s
21%
22:00
19°
1008.0 hPa
21%
12.7°
3
Windvlaag: 8.2 m/s
24%
23:00
19°
1008.3 hPa
21%
12.6°
3
Windvlaag: 6.8 m/s
54%
 07:32     19:33    Daglengte: 12:01 Donderdag 24 Sep
00:00
18°
1008.7 hPa
21%
12.7°
3
Windvlaag: 8.7 m/s
62%
01:00
18°
1008.8 hPa 11.1 mm
95%
12.8°
3
Windvlaag: 10.2 m/s
82%
Temp/Neerslag /Baro Onweer/Dauwpunt
    Temp Baro Neerslag Dauwpunt Wind Bewolking  
 07:28     19:39    Daglengte: 12:11 Vandaag
02:00
17°
1015.5 hPa   15.9°
1
53%
05:00
16°
1015.4 hPa 0.6 mm 15.7°
1
64%
08:00
16°
1015.8 hPa 1.6 mm 15.5°
1
79%
11:00
19°
1016.3 hPa 2.1 mm 15.1°
1
61% warningclass
14:00
23°
1015.1 hPa 1.6 mm 14.5°
1
37% warningclass
17:00
23°
1014.0 hPa 0.2 mm 15.2°
1
35%
20:00
21°
1014.1 hPa 0.4 mm 15.7°
1
67%
23:00
18°
1014.7 hPa   16.1°
1
56%
 07:30     19:37    Daglengte: 12:07 Morgen
02:00
17°
1014.2 hPa   15.8°
1
34%
05:00
16°
1013.5 hPa   15.2°
1
40%
08:00
16°
1013.9 hPa 1.1 mm 15.2°
1
73% warningclass
11:00
19°
1013.7 hPa 0.9 mm 15.1°
1
42%
14:00
22°
1011.8 hPa   14.6°
2
45%
17:00
22°
1010.2 hPa 1.4 mm 16.1°
2
64%
20:00
19°
1010.4 hPa 0.4 mm 16.7°
2
82% warningclass
23:00
18°
1011.4 hPa 5.6 mm 16.4°
2
86%
 07:31     19:35    Daglengte: 12:04 Woensdag 23 Sep
02:00
17°
1011.1 hPa 19.0 mm 16.1°
2
73% warningclass
05:00
16°
1010.7 hPa 20.2 mm 15.3°
1
66%
08:00
16°
1011.0 hPa 19.4 mm 14.8°
1
53%
11:00
19°
1011.0 hPa 27.5 mm 14.9°
1
33%
14:00
22°
1009.7 hPa 17.6 mm 13.8°
2
13%
17:00
22°
1008.2 hPa   13.6°
3
24%
20:00
20°
1007.3 hPa   13.0°
3
21%
23:00
19°
1008.3 hPa   12.6°
3
54%
 07:32     19:33    Daglengte: 12:01 Donderdag 24 Sep
02:00
18°
1009.2 hPa 32.8 mm 12.8°
3
89%
05:00
16°
1010.5 hPa 22.7 mm 13.3°
3
82%
08:00
15°
1010.9 hPa 26.1 mm 13.6°
2
79%
11:00
17°
1010.7 hPa 30.4 mm 13.9°
2
73%
14:00
19°
1010.6 hPa 33.3 mm 14.0°
2
67%
17:00
18°
1009.6 hPa 34.8 mm 13.6°
2
80%
20:00
17°
1008.8 hPa 39.9 mm 13.3°
2
92%
23:00
16°
1008.6 hPa 41.4 mm 13.1°
2
66%
 07:33     19:31    Daglengte: 11:58 Vrijdag 25 Sep
02:00
15°
1008.4 hPa 42.1 mm 12.6°
2
41%
05:00
14°
1007.5 hPa 42.3 mm 11.2°
2
57%
08:00
13°
1006.7 hPa 43.5 mm 9.7°
2
73%
11:00
14°
1007.4 hPa 43.9 mm 7.5°
2
64%
14:00
16°
1008.0 hPa 44.3 mm 4.1°
2
55%
17:00
14°
1008.1 hPa 44.5 mm 5.7°
2
70%
20:00
12°
1008.3 hPa 45.2 mm 6.7°
2
86%
23:00
11°
1009.9 hPa 45.3 mm 6.7°
3
88%
 07:35     19:29    Daglengte: 11:54 Zaterdag 26 Sep
02:00
10°
Voelt als: 7.6°
1011.3 hPa 45.9 mm 6.8°
5
90%
05:00
Voelt als: 6.2°
1012.7 hPa 46.5 mm 5.9°
5
65%
08:00
Voelt als: 4.7°
1014.1 hPa 46.6 mm 4.9°
6
41%
11:00
10°
1014.9 hPa 46.6 mm 4.8°
7
39%
14:00
12°
1015.7 hPa 47.2 mm 4.2°
8
37%
17:00
13°
1015.9 hPa 48.2 mm 2.0°
6
64%
20:00
13°
1016.3 hPa 48.4 mm -0.5°
5
91%
23:00
11°
1016.7 hPa 48.4 mm 0.0°
4
62%
 07:36     19:27    Daglengte: 11:51 Zondag 27 Sep
02:00
10°
Voelt als: 7.6°
1016.8 hPa 48.4 mm 0.3°
4
33%
05:00
Voelt als: 6.9°
1016.6 hPa 50.0 mm 1.6°
4
62%
08:00
Voelt als: 6.2°
1016.6 hPa 51.4 mm 2.3°
4
90%
11:00
10°
Voelt als: 7.9°
1017.2 hPa 52.2 mm 3.7°
4
91%
14:00
11°
1017.8 hPa 52.7 mm 5.1°
4
92%
17:00
11°
1018.3 hPa 52.7 mm 6.3°
3
63%
20:00
11°
1018.9 hPa 52.7 mm 7.2°
1
34%
23:00
Voelt als: 8.7°
1019.9 hPa   5.8°
2
61%
 07:37     19:25    Daglengte: 11:48 Maandag 28 Sep
02:00
Voelt als: 7.0°
1020.9 hPa 105.3 mm 4.5°
2
87%
08:00
Voelt als: 4.5°
1022.6 hPa 105.3 mm 3.1°
1
1%
14:00
17°
1022.6 hPa 106.7 mm 1.9°
2
3%
20:00
15°
1021.7 hPa 110.3 mm 5.8°
2
35%
 07:39     19:23    Daglengte: 11:44 Dinsdag 29 Sep
02:00
11°
1021.9 hPa 124.3 mm 6.2°
2
67%
08:00
Voelt als: 7.0°
1020.9 hPa 124.4 mm 5.3°
2
9%
14:00
22°
1018.1 hPa 124.4 mm 8.2°
4
41%
20:00
17°
1016.5 hPa 124.4 mm 10.2°
4
21%
 07:40     19:21    Daglengte: 11:41 Woensdag 30 Sep
02:00
13°
1016.8 hPa 124.4 mm 11.3°
2
69%
08:00
13°
1016.1 hPa 124.4 mm 12.4°
2
63%
14:00
23°
1014.9 hPa 124.4 mm 10.4°
3
0%
20:00
14°
1018.2 hPa 1.2 mm 10.7°
0
40%
 07:41     19:19    Daglengte: 11:38 Donderdag 01 Okt
02:00
11°
1019.0 hPa 1.7 mm 9.4°
1
40%
08:00
10°
1018.6 hPa 1.3 mm 8.0°
1
37%
14:00
19°
1017.0 hPa 0.3 mm 10.8°
1
36%
20:00
14°
1016.3 hPa 0.4 mm 10.3°
1
30%
 07:42     19:18    Daglengte: 11:36 Vrijdag 02 Okt
02:00
11°
1016.9 hPa 0.7 mm 8.8°
1
30%
08:00
10°
1016.3 hPa 1.2 mm 8.1°
1
26%
14:00
19°
1015.3 hPa 1.0 mm 11.7°
1
32%
20:00
14°
1015.4 hPa 0.5 mm 11.2°
0
35%
 07:44     19:16    Daglengte: 11:32 Zaterdag 03 Okt
02:00
12°
1016.3 hPa 0.7 mm 9.5°
1
31%
08:00
11°
1015.9 hPa 0.5 mm 8.8°
1
37%
14:00
20°
1015.1 hPa 0.7 mm 12.6°
2
38%
20:00
15°
1015.7 hPa 1.1 mm 12.1°
1
38%
 07:45     19:14    Daglengte: 11:29 Zondag 04 Okt
02:00
13°
1017.0 hPa 1.0 mm 10.7°
1
41%
08:00
11°
1016.9 hPa 0.4 mm 9.3°
1
36%
14:00
20°
1016.2 hPa 0.4 mm 12.5°
2
36%
20:00
15°
1016.3 hPa 0.8 mm 12.1°
1
38%
 07:46     19:12    Daglengte: 11:26 Maandag 05 Okt
02:00
13°
1017.3 hPa 1.2 mm 10.8°
2
41%
08:00
12°
1017.4 hPa 1.8 mm 10.1°
1
46%
14:00
20°
1016.9 hPa 1.1 mm 13.6°
2
49%
20:00
15°
1017.0 hPa 0.5 mm 12.8°
1
39%
  CAPE Lifted Index Hail Supercell Tornado SRH 3km CL BTM PRES CL TOP PRES Swiss DWD icon SMHI TS
 07:28     19:39    Daglengte: 12:11 Vandaag
02:00 21 J/kg -1.6 K 0 % 0 % 0 % 0 m²/s² 0 0 -0.55 80
03:00 4 J/kg -1.3 K 0 % 0 % 0 % 0 m²/s² 0 0 -0.46 3
04:00 0 J/kg -0.8 K 0 % 0 % 0 % 0 m²/s² 0 0 0.1 80
05:00 0 J/kg -1.2 K 0 % 0 % 0 % 0 m²/s² 0 0 -0.39 3
06:00 0 J/kg -1.4 K 0 % 0 % 0 % 0 m²/s² 0 0 -0.68 95
07:00 0 J/kg -1.4 K 0 % 0 % 0 % 0 m²/s² 0 0 -0.74 80
08:00 0 J/kg -1.3 K 0 % 0 % 0 % 0 m²/s² 0 0 -0.49 61
09:00 0 J/kg -1.0 K 0 % 0 % 0 % 0 m²/s² 0 0 -0.19 80
10:00 53 J/kg -0.8 K 0 % 0 % 0 % 0 m²/s² 0 0 0.04 95
11:00 207 J/kg -1.2 K 0 % 0 % 0 % 0 m²/s² 0 0 -0.36 95
12:00 325 J/kg -1.4 K 0 % 0 % 0 % 0 m²/s² 0 0 -0.35 95
13:00 376 J/kg -1.5 K 0 % 0 % 0 % 0 m²/s² 0 0 -0.24 95
14:00 429 J/kg -1.7 K 0 % 0 % 0 % 0 m²/s² 0 0 -0.35 95
15:00 437 J/kg -1.9 K 0 % 0 % 0 % 0 m²/s² 0 0 -0.43 80
16:00 472 J/kg -2.1 K 0 % 0 % 0 % 0 m²/s² 0 0 -0.57 3
17:00 472 J/kg -2.0 K 0 % 0 % 0 % 0 m²/s² 0 0 -0.53 3
18:00 462 J/kg -1.9 K 0 % 0 % 0 % 0 m²/s² 0 0 -0.58 3
19:00 746 J/kg -2.5 K 0 % 0 % 0 % 0 m²/s² 0 0 -1.93 3
20:00 456 J/kg -1.9 K 0 % 0 % 0 % 0 m²/s² 0 0 -1.54 3
21:00 242 J/kg -1.7 K 0 % 0 % 0 % 0 m²/s² 0 0 -1.22 3
22:00 286 J/kg -2.0 K 0 % 0 % 0 % 0 m²/s² 0 0 -1.04 3
23:00 265 J/kg -1.6 K 0 % 0 % 0 % 0 m²/s² 0 0 -0.88 3
 07:30     19:37    Daglengte: 12:07 Morgen
00:00 253 J/kg -1.9 K 0 % 0 % 0 % 0 m²/s² 0 0 -1.06 3
01:00 241 J/kg -2.1 K 0 % 0 % 0 % 0 m²/s² 0 0 -1.26 3
02:00 38 J/kg -1.6 K 0 % 0 % 0 % 0 m²/s² 0 0 -0.64 80
03:00 0 J/kg -0.5 K 0 % 0 % 0 % 0 m²/s² 0 0 1.09 80
04:00 0 J/kg 0.0 K 0 % 0 % 0 % 0 m²/s² 0 0 1.47 3
05:00 0 J/kg -0.4 K 0 % 0 % 0 % 0 m²/s² 0 0 0.95 45
06:00 0 J/kg -0.5 K 0 % 0 % 0 % 0 m²/s² 0 0 0.46 45
07:00 0 J/kg -0.8 K 0 % 0 % 0 % 0 m²/s² 0 0 -0.05 80
08:00 0 J/kg -0.7 K 0 % 0 % 0 % 0 m²/s² 0 0 -0.13 95
09:00 0 J/kg -0.9 K 0 % 0 % 0 % 0 m²/s² 0 0 -0.33 80
10:00 11 J/kg -0.7 K 0 % 0 % 0 % 0 m²/s² 0 0 0.05 80
11:00 119 J/kg -0.8 K 0 % 0 % 0 % 0 m²/s² 0 0 0.01 3
12:00 258 J/kg -1.3 K 0 % 0 % 0 % 0 m²/s² 0 0 -0.04 3
13:00 438 J/kg -2.1 K 0 % 0 % 0 % 0 m²/s² 0 0 -0.84 3
14:00 540 J/kg -2.4 K 0 % 0 % 0 % 0 m²/s² 0 0 -0.99 3
15:00 667 J/kg -2.9 K 0 % 0 % 0 % 0 m²/s² 0 0 -1.55 3
16:00 750 J/kg -3.0 K 0 % 0 % 0 % 0 m²/s² 0 0 -1.59 3
17:00 801 J/kg -3.0 K 0 % 0 % 0 % 0 m²/s² 0 0 -1.65 3
18:00 856 J/kg -3.0 K 0 % 0 % 0 % 0 m²/s² 0 0 -2.19 80
19:00 902 J/kg -3.1 K 0 % 0 % 0 % 0 m²/s² 0 0 -2.26 3
20:00 816 J/kg -3.7 K 0 % 0 % 0 % 0 m²/s² 0 0 -3.7 3
21:00 249 J/kg -1.6 K 0 % 0 % 0 % 0 m²/s² 0 0 -1.57 3
22:00 291 J/kg -1.5 K 0 % 0 % 0 % 0 m²/s² 0 0 -1.05 3
23:00 244 J/kg -1.6 K 0 % 0 % 0 % 0 m²/s² 0 0 -1.48 3
 07:31     19:35    Daglengte: 12:04 Woensdag 23 Sep
00:00 293 J/kg -1.0 K 0 % 0 % 0 % 0 m²/s² 0 0 -0.91 3
01:00 312 J/kg -1.4 K 0 % 0 % 0 % 0 m²/s² 0 0 -1.19 3
02:00 281 J/kg -1.5 K 0 % 0 % 0 % 0 m²/s² 0 0 -1.41 95
03:00 225 J/kg -1.1 K 0 % 0 % 0 % 0 m²/s² 0 0 -0.89 95
04:00 159 J/kg -0.6 K 0 % 0 % 0 % 0 m²/s² 0 0 -0.18 95
05:00 121 J/kg -0.5 K 0 % 0 % 0 % 0 m²/s² 0 0 -0.23 80
06:00 73 J/kg -0.3 K 0 % 0 % 0 % 0 m²/s² 0 0 -0.18 45
07:00 57 J/kg -0.3 K 0 % 0 % 0 % 0 m²/s² 0 0 0.06 80
08:00 136 J/kg -0.7 K 0 % 0 % 0 % 0 m²/s² 0 0 -0.19 45
09:00 219 J/kg -0.7 K 0 % 0 % 0 % 0 m²/s² 0 0 0.29 45
10:00 241 J/kg -1.0 K 0 % 0 % 0 % 0 m²/s² 0 0 0.26 3
11:00 328 J/kg -1.2 K 0 % 0 % 0 % 0 m²/s² 0 0 0 3
12:00 448 J/kg -1.7 K 0 % 0 % 0 % 0 m²/s² 0 0 -0.17 80
13:00 535 J/kg -2.1 K 0 % 0 % 0 % 0 m²/s² 0 0 -0.36 3
14:00 394 J/kg -1.7 K 0 % 0 % 0 % 0 m²/s² 0 0 0.73 80
15:00 271 J/kg -1.5 K 0 % 0 % 0 % 0 m²/s² 0 0 0.72 2
16:00 239 J/kg -1.4 K 0 % 0 % 0 % 0 m²/s² 0 0 0.94 1
17:00 267 J/kg -1.5 K 0 % 0 % 0 % 0 m²/s² 0 0 0.33 2
18:00 435 J/kg -2.4 K 0 % 0 % 0 % 0 m²/s² 0 0 0.03 1
19:00 480 J/kg -2.6 K 0 % 0 % 0 % 0 m²/s² 0 0 -0.71 1
20:00 324 J/kg -1.6 K 0 % 0 % 0 % 0 m²/s² 0 0 0.35 2
21:00 136 J/kg -0.5 K 0 % 0 % 0 % 0 m²/s² 0 0 1.27 1
22:00 11 J/kg 0.5 K 0 % 0 % 0 % 0 m²/s² 0 0 2.09 2
23:00 0 J/kg -0.3 K 0 % 0 % 0 % 0 m²/s² 0 0 1.11 3
 07:32     19:33    Daglengte: 12:01 Donderdag 24 Sep
00:00 0 J/kg -0.4 K 0 % 0 % 0 % 0 m²/s² 0 0 0.35 3
01:00 0 J/kg -0.9 K 0 % 0 % 0 % 0 m²/s² 0 0 -0.33 80
Temp Baro Wind Neerslag
  EWN Forecast EWN WRFDA DWD ICON FMI HIRLAM MET Norway GFS
 07:28     19:39    Daglengte: 12:11 Vandaag
02:00 16.9° 1015.5 hPa 1.2 m/s 0.0 mm 19.6° 1014.1 hPa 2.7 m/s 0.2 mm 18.2° 1015.3 hPa 0.7 m/s -1.7 mm 16.1° 1016.2 hPa 1.4 m/s 0.0 mm 16.4° 1015.4 hPa 1.1 m/s 19.4° 1015.9 hPa 0.9 m/s
05:00 16.2° 1015.4 hPa 0.8 m/s 0.6 mm 18.6° 1013.7 hPa 1.8 m/s 0.7 mm 17.1° 1014.9 hPa 0.6 m/s 0.6 mm 14.5° 1015.7 hPa 0.4 m/s 0.0 mm 15.8° 1015.5 hPa 1.1 m/s 18.5° 1015.6 hPa 0.4 m/s
08:00 16.3° 1015.8 hPa 0.9 m/s 1.6 mm 17.6° 1014.9 hPa 2.5 m/s 0.7 mm 16.5° 1015.2 hPa 0.4 m/s 2.8 mm 13.8° 1016.2 hPa 0.8 m/s 0.0 mm 16.3° 1015.9 hPa 1.2 m/s 17.9° 1016.2 hPa 0.8 m/s
11:00 19.4° 1016.3 hPa 0.9 m/s 2.1 mm 21.4° 1015.1 hPa 0.7 m/s 0.7 mm 18.5° 1016.2 hPa 0.5 m/s 3.2 mm 20.6° 1016.1 hPa 0.7 m/s 0.0 mm 19.3° 1016.4 hPa 1.3 m/s 22.6° 1016.0 hPa 0.5 m/s
14:00 22.7° 1015.1 hPa 0.6 m/s 1.6 mm 24.6° 1014.1 hPa 0.7 m/s 0.7 mm 20.5° 1015.6 hPa 0.5 m/s 3.2 mm 25.2° 1014.8 hPa 0.9 m/s 0.0 mm 22.6° 1015.0 hPa 0.6 m/s 26.5° 1015.0 hPa 1.0 m/s
17:00 23.5° 1014.0 hPa 1.1 m/s 0.2 mm 25.9° 1012.6 hPa 0.6 m/s 0.7 mm 22.1° 1014.4 hPa 1.0 m/s 0.4 mm 24.9° 1013.4 hPa 1.8 m/s 0.0 mm 23.0° 1014.0 hPa 1.0 m/s 26.9° 1014.0 hPa 1.0 m/s
20:00 20.7° 1014.1 hPa 1.1 m/s 0.4 mm 23.1° 1012.6 hPa 3.2 m/s 1.0 mm 20.0° 1014.5 hPa 0.7 m/s 0.2 mm 22.5° 1013.7 hPa 0.9 m/s 0.0 mm 20.1° 1014.1 hPa 1.0 m/s 23.5° 1014.2 hPa 0.4 m/s
23:00 18.4° 1014.7 hPa 1.2 m/s 0.0 mm 20.6° 1013.1 hPa 3.4 m/s 1.8 mm 18.2° 1014.9 hPa 0.7 m/s 0.0 mm 18.7° 1014.5 hPa 0.4 m/s 0.0 mm 18.0° 1014.7 hPa 1.2 m/s 21.1° 1015.1 hPa 0.3 m/s
 07:30     19:37    Daglengte: 12:07 Morgen
02:00 16.9° 1014.2 hPa 0.8 m/s 0.0 mm 18.9° 1013.0 hPa 2.6 m/s 2.7 mm 17.1° 1014.7 hPa 0.5 m/s 0.9 mm 16.5° 1013.9 hPa 0.6 m/s 0.0 mm 16.2° 1014.2 hPa 1.3 m/s 19.8° 1015.0 hPa 1.2 m/s
05:00 15.9° 1013.5 hPa 0.6 m/s 0.0 mm 17.4° 1012.0 hPa 2.4 m/s 2.8 mm 16.3° 1013.8 hPa 0.2 m/s 1.0 mm 14.5° 1013.3 hPa 0.4 m/s 0.0 mm 15.3° 1013.6 hPa 0.9 m/s 18.2° 1014.0 hPa 1.2 m/s
08:00 15.8° 1013.9 hPa 0.7 m/s 1.1 mm 16.9° 1011.8 hPa 2.2 m/s 2.8 mm 15.7° 1014.2 hPa 0.1 m/s 1.0 mm 14.5° 1013.7 hPa 0.6 m/s 0.0 mm 15.7° 1014.1 hPa 1.2 m/s 17.4° 1014.1 hPa 0.7 m/s
11:00 19.3° 1013.7 hPa 0.9 m/s 0.9 mm 21.0° 1012.0 hPa 0.4 m/s 2.8 mm 17.9° 1014.2 hPa 0.6 m/s 1.1 mm 20.5° 1012.9 hPa 1.2 m/s 0.0 mm 19.3° 1013.8 hPa 0.9 m/s 22.0° 1013.7 hPa 0.1 m/s
14:00 22.5° 1011.8 hPa 1.6 m/s 0.0 mm 24.2° 1010.1 hPa 0.3 m/s 2.8 mm 21.7° 1012.8 hPa 0.5 m/s 0.1 mm 24.4° 1010.9 hPa 2.5 m/s 0.0 mm 22.3° 1011.7 hPa 1.7 m/s 26.0° 1012.3 hPa 0.9 m/s
17:00 22.1° 1010.2 hPa 2.2 m/s 1.4 mm 25.0° 1008.3 hPa 2.1 m/s 2.8 mm 21.0° 1011.1 hPa 1.3 m/s 0.8 mm 23.7° 1009.2 hPa 1.5 m/s 0.0 mm 21.4° 1010.3 hPa 3.2 m/s 25.3° 1010.9 hPa 0.3 m/s
20:00 19.4° 1010.4 hPa 2.3 m/s 0.4 mm 21.2° 1008.5 hPa 3.8 m/s 4.7 mm 18.8° 1011.0 hPa 0.8 m/s 0.4 mm 20.4° 1009.8 hPa 0.6 m/s 0.0 mm 18.4° 1010.4 hPa 2.5 m/s 21.1° 1011.3 hPa 2.2 m/s
23:00 17.7° 1011.4 hPa 1.7 m/s 5.6 mm 18.7° 1009.9 hPa 0.9 m/s 72.5 mm 17.8° 1011.4 hPa 0.6 m/s 0.0 mm 16.9° 1011.4 hPa 2.2 m/s 18.7° 1012.3 hPa 1.3 m/s
 07:31     19:35    Daglengte: 12:04 Woensdag 23 Sep
02:00 16.9° 1011.1 hPa 1.5 m/s 19.0 mm 18.1° 1010.4 hPa 2.7 m/s 88.2 mm 17.0° 1011.0 hPa 0.3 m/s 2.0 mm 16.1° 1011.1 hPa 1.6 m/s 18.9° 1012.6 hPa 0.7 m/s
05:00 16.3° 1010.7 hPa 1.5 m/s 20.2 mm 17.9° 1009.5 hPa 1.4 m/s 91.3 mm 16.3° 1010.6 hPa 0.3 m/s 4.1 mm 15.8° 1010.7 hPa 1.6 m/s 18.5° 1011.9 hPa 0.8 m/s
08:00 15.8° 1011.0 hPa 1.3 m/s 19.4 mm 17.5° 1009.8 hPa 0.8 m/s 93.1 mm 15.8° 1010.7 hPa 0.5 m/s 0.9 mm 15.6° 1011.0 hPa 1.4 m/s 17.6° 1012.3 hPa 1.2 m/s
11:00 18.7° 1011.0 hPa 1.2 m/s 27.5 mm 19.5° 1009.7 hPa 0.3 m/s 94.2 mm 17.9° 1011.0 hPa 1.0 m/s 0.2 mm 18.7° 1011.3 hPa 1.5 m/s 21.1° 1011.2 hPa 1.6 m/s
14:00 22.0° 1009.7 hPa 1.8 m/s 17.6 mm 23.2° 1009.2 hPa 1.2 m/s 95.0 mm 19.9° 1009.7 hPa 1.4 m/s 1.2 mm 22.3° 1009.7 hPa 2.2 m/s 24.2° 1010.1 hPa 2.4 m/s
17:00 21.9° 1008.2 hPa 2.5 m/s 0.0 mm 25.0° 1007.4 hPa 2.1 m/s 95.0 mm 22.0° 1007.9 hPa 1.9 m/s 0.0 mm 21.2° 1008.5 hPa 3.0 m/s 26.3° 1008.8 hPa 1.3 m/s
20:00 20.4° 1007.3 hPa 3.4 m/s 0.0 mm 23.7° 1006.8 hPa 3.6 m/s 96.0 mm 19.9° 1007.3 hPa 1.1 m/s 0.0 mm 20.1° 1007.4 hPa 3.9 m/s 22.6° 1009.4 hPa 3.4 m/s
23:00 18.9° 1008.3 hPa 3.2 m/s 0.0 mm 20.9° 1008.0 hPa 3.6 m/s 96.6 mm 17.5° 1008.1 hPa 0.9 m/s 0.0 mm 18.9° 1008.5 hPa 3.6 m/s 20.1° 1011.2 hPa 2.9 m/s
 07:32     19:33    Daglengte: 12:01 Donderdag 24 Sep
02:00 17.7° 1009.2 hPa 3.1 m/s 32.8 mm 19.6° 1008.9 hPa 4.0 m/s 97.2 mm 17.2° 1008.5 hPa 1.3 m/s 0.6 mm 17.6° 1009.6 hPa 3.3 m/s 19.8° 1011.5 hPa 2.8 m/s
05:00 16.0° 1010.5 hPa 2.7 m/s 22.7 mm 15.8° 1010.4 hPa 2.7 m/s 18.3° 1011.0 hPa 2.1 m/s 22.7 mm
08:00 15.1° 1010.9 hPa 2.3 m/s 26.1 mm 14.9° 1010.8 hPa 2.4 m/s 17.5° 1011.5 hPa 1.2 m/s 26.1 mm
11:00 17.3° 1010.7 hPa 2.1 m/s 30.4 mm 17.2° 1010.7 hPa 2.3 m/s 17.5° 1011.2 hPa 0.4 m/s 30.4 mm
14:00 19.4° 1010.6 hPa 2.1 m/s 33.3 mm 19.6° 1010.6 hPa 2.2 m/s 17.6° 1010.7 hPa 0.6 m/s 33.3 mm
17:00 18.1° 1009.6 hPa 2.1 m/s 34.8 mm 18.1° 1009.7 hPa 2.2 m/s 17.1° 1009.4 hPa 0.7 m/s 34.8 mm
20:00 16.7° 1008.8 hPa 2.3 m/s 39.9 mm 16.7° 1008.7 hPa 2.3 m/s 16.2° 1009.4 hPa 2.1 m/s 39.9 mm
23:00 15.6° 1008.6 hPa 2.1 m/s 41.4 mm 15.6° 1008.4 hPa 2.1 m/s 16.1° 1011.0 hPa 2.0 m/s 41.4 mm
 07:33     19:31    Daglengte: 11:58 Vrijdag 25 Sep
02:00 14.6° 1008.4 hPa 1.9 m/s 42.1 mm 14.5° 1008.1 hPa 1.9 m/s 15.8° 1011.8 hPa 1.4 m/s 42.1 mm
05:00 13.9° 1007.5 hPa 2.1 m/s 42.3 mm 13.8° 1007.2 hPa 2.0 m/s 14.6° 1011.8 hPa 2.5 m/s 42.3 mm
08:00 13.1° 1006.7 hPa 2.2 m/s 43.5 mm 13.2° 1006.2 hPa 2.2 m/s 12.5° 1012.6 hPa 1.8 m/s 43.5 mm
11:00 14.4° 1007.4 hPa 2.2 m/s 43.9 mm 14.6° 1007.0 hPa 2.0 m/s 12.6° 1012.5 hPa 3.7 m/s 43.9 mm
14:00 15.8° 1008.0 hPa 2.1 m/s 44.3 mm 16.0° 1007.7 hPa 1.9 m/s 13.2° 1011.7 hPa 4.6 m/s 44.3 mm
17:00 14.2° 1008.1 hPa 1.9 m/s 44.5 mm 14.2° 1007.8 hPa 1.6 m/s 14.6° 1011.3 hPa 4.2 m/s 44.5 mm
20:00 12.2° 1008.3 hPa 1.7 m/s 45.2 mm 12.3° 1007.9 hPa 1.4 m/s 11.0° 1013.2 hPa 4.6 m/s 45.2 mm
23:00 11.0° 1009.9 hPa 3.2 m/s 45.3 mm 11.2° 1009.4 hPa 3.1 m/s 9.8° 1015.2 hPa 4.4 m/s 45.3 mm
 07:35     19:29    Daglengte: 11:54 Zaterdag 26 Sep
02:00 9.9° 1011.3 hPa 4.7 m/s 45.9 mm 10.0° 1010.9 hPa 4.8 m/s 8.9° 1016.2 hPa 3.7 m/s 45.9 mm
05:00 9.0° 1012.7 hPa 5.4 m/s 46.5 mm 8.9° 1012.3 hPa 5.4 m/s 9.2° 1016.0 hPa 5.1 m/s 46.5 mm
08:00 8.0° 1014.1 hPa 5.8 m/s 46.6 mm 7.9° 1013.8 hPa 6.0 m/s 8.6° 1017.5 hPa 3.3 m/s 46.6 mm
11:00 10.2° 1014.9 hPa 6.7 m/s 46.6 mm 10.2° 1014.6 hPa 7.0 m/s 10.3° 1017.9 hPa 3.7 m/s 46.6 mm
14:00 12.5° 1015.7 hPa 7.7 m/s 47.2 mm 12.4° 1015.5 hPa 8.0 m/s 13.2° 1017.3 hPa 3.9 m/s 47.2 mm
17:00 12.7° 1015.9 hPa 6.3 m/s 48.2 mm 12.6° 1015.9 hPa 6.5 m/s 13.9° 1016.0 hPa 4.2 m/s 48.2 mm
20:00 12.7° 1016.3 hPa 4.6 m/s 48.4 mm 12.8° 1016.2 hPa 4.9 m/s 11.4° 1017.3 hPa 1.0 m/s 48.4 mm
23:00 11.2° 1016.7 hPa 4.5 m/s 48.4 mm 11.3° 1016.5 hPa 4.7 m/s 10.5° 1017.9 hPa 2.0 m/s 48.4 mm
 07:36     19:27    Daglengte: 11:51 Zondag 27 Sep
02:00 9.8° 1016.8 hPa 4.3 m/s 48.4 mm 9.8° 1016.9 hPa 4.5 m/s 9.7° 1015.2 hPa 2.3 m/s 48.4 mm
05:00 9.1° 1016.6 hPa 3.9 m/s 50.0 mm 9.1° 1017.0 hPa 4.0 m/s 8.8° 1012.3 hPa 2.5 m/s 50.0 mm
08:00 8.4° 1016.6 hPa 3.5 m/s 51.4 mm 8.4° 1017.1 hPa 3.5 m/s 8.0° 1010.8 hPa 4.0 m/s 51.4 mm
11:00 9.8° 1017.2 hPa 3.8 m/s 52.2 mm 9.9° 1017.8 hPa 3.9 m/s 8.6° 1010.6 hPa 2.2 m/s 52.2 mm
14:00 11.3° 1017.8 hPa 4.1 m/s 52.7 mm 11.4° 1018.5 hPa 4.3 m/s 9.9° 1010.2 hPa 1.7 m/s 52.7 mm
17:00 11.1° 1018.3 hPa 2.8 m/s 52.7 mm 10.9° 1019.0 hPa 2.9 m/s 13.1° 1010.2 hPa 1.3 m/s 52.7 mm
20:00 10.6° 1018.9 hPa 1.5 m/s 52.7 mm 10.5° 1019.5 hPa 1.5 m/s 12.1° 1011.7 hPa 1.2 m/s 52.7 mm
23:00 9.2° 1019.9 hPa 1.5 m/s 52.7 mm 9.0° 1020.5 hPa 1.6 m/s 11.5° 1013.1 hPa 0.9 m/s 52.7 mm
 07:37     19:25    Daglengte: 11:48 Maandag 28 Sep
02:00 7.8° 1020.9 hPa 1.6 m/s 52.7 mm 7.5° 1021.6 hPa 1.7 m/s 10.8° 1013.3 hPa 0.9 m/s 52.7 mm
08:00 5.2° 1022.6 hPa 1.3 m/s 52.7 mm 4.6° 1023.4 hPa 1.2 m/s 11.8° 1013.4 hPa 2.1 m/s 52.7 mm
14:00 17.3° 1022.6 hPa 1.5 m/s 53.4 mm 17.3° 1023.5 hPa 1.4 m/s 17.2° 1012.2 hPa 2.9 m/s 53.4 mm
20:00 15.3° 1021.7 hPa 1.6 m/s 56.6 mm 15.2° 1022.6 hPa 1.6 m/s 16.6° 1011.5 hPa 1.3 m/s 56.6 mm
 07:39     19:23    Daglengte: 11:44 Dinsdag 29 Sep
02:00 10.9° 1021.9 hPa 1.7 m/s 62.2 mm 10.7° 1022.4 hPa 1.6 m/s 13.0° 1016.2 hPa 3.3 m/s 62.2 mm
08:00 7.8° 1020.9 hPa 1.7 m/s 62.2 mm 7.5° 1021.2 hPa 1.7 m/s 11.2° 1017.5 hPa 1.2 m/s 62.2 mm
14:00 21.6° 1018.1 hPa 3.8 m/s 62.2 mm 21.8° 1018.5 hPa 3.8 m/s 19.2° 1013.6 hPa 3.3 m/s 62.2 mm
20:00 17.5° 1016.5 hPa 3.9 m/s 62.2 mm 17.4° 1016.8 hPa 4.0 m/s 18.2° 1013.8 hPa 2.7 m/s 62.2 mm
 07:40     19:21    Daglengte: 11:41 Woensdag 30 Sep
02:00 13.2° 1016.8 hPa 1.7 m/s 62.2 mm 13.1° 1017.0 hPa 1.6 m/s 14.7° 1015.1 hPa 3.1 m/s 62.2 mm
08:00 13.3° 1016.1 hPa 1.7 m/s 62.2 mm 13.3° 1016.2 hPa 1.6 m/s 13.8° 1015.5 hPa 2.3 m/s 62.2 mm
14:00 23.3° 1014.9 hPa 3.4 m/s 62.2 mm 23.3° 1014.9 hPa 3.4 m/s 62.2 mm
20:00 13.7° 1018.2 hPa 0.4 m/s 1.2 mm
 07:41     19:19    Daglengte: 11:38 Donderdag 01 Okt
02:00 11.3° 1019.0 hPa 0.9 m/s 1.7 mm
08:00 9.6° 1018.6 hPa 0.7 m/s 1.3 mm
14:00 18.7° 1017.0 hPa 1.0 m/s 0.3 mm
20:00 13.7° 1016.3 hPa 0.8 m/s 0.4 mm
 07:42     19:18    Daglengte: 11:36 Vrijdag 02 Okt
02:00 11.2° 1016.9 hPa 1.2 m/s 0.7 mm
08:00 10.0° 1016.3 hPa 0.9 m/s 1.2 mm
14:00 19.3° 1015.3 hPa 0.8 m/s 1.0 mm
20:00 14.4° 1015.4 hPa 0.5 m/s 0.5 mm
 07:44     19:16    Daglengte: 11:32 Zaterdag 03 Okt
02:00 11.6° 1016.3 hPa 1.2 m/s 0.7 mm
08:00 10.5° 1015.9 hPa 1.4 m/s 0.5 mm
14:00 20.0° 1015.1 hPa 2.5 m/s 0.7 mm
20:00 14.9° 1015.7 hPa 1.1 m/s 1.1 mm
 07:45     19:14    Daglengte: 11:29 Zondag 04 Okt
02:00 12.5° 1017.0 hPa 1.3 m/s 1.0 mm
08:00 11.1° 1016.9 hPa 1.2 m/s 0.4 mm
14:00 20.1° 1016.2 hPa 2.2 m/s 0.4 mm
20:00 15.1° 1016.3 hPa 1.3 m/s 0.8 mm
 07:46     19:12    Daglengte: 11:26 Maandag 05 Okt
02:00 13.0° 1017.3 hPa 1.6 m/s 1.2 mm
08:00 12.2° 1017.4 hPa 1.0 m/s 1.8 mm
14:00 20.1° 1016.9 hPa 1.7 m/s 1.1 mm
20:00 15.5° 1017.0 hPa 1.3 m/s 0.5 mm
FMI Hirlam - 7.5 km EWN WRFDA - 12 km DWD ICON - 7 km GFS - 25 km Basiskaart






























































Updatetijd (Europe/Amsterdam) Resolutie Lengte Stap
FMI Hirlam 19:00, 01:00, 07:00, 13:00 7.5 km 49h 1h
EWN WRFDA 22:00, 04:00, 10:00, 16:00 12 km 73h 1h
DWD ICON 23:45, 05:45, 11:45, 17:45 7 km 75h 1h
GFS 19:45, 01:45, 07:45, 13:45 25 km 237h 3h
30+ mm
25-30 mm
20-25 mm
15-20 mm
10-15 mm
6-10 mm
4-6 mm
2-4 mm
1-2 mm
0.5-1 mm
0.2-0.5 mm
0.1-0.2 mm
30+ mm
25-30 mm
20-25 mm
15-20 mm
10-15 mm
6-10 mm
4-6 mm
2-4 mm
1-2 mm
0.5-1 mm
0.2-0.5 mm
0.1-0.2 mm
Sneeuwval
Natte sneeuw
Hagel
Vorst
30+ mm
25-30 mm
20-25 mm
15-20 mm
10-15 mm
6-10 mm
4-6 mm
2-4 mm
1-2 mm
0.5-1 mm
0.2-0.5 mm
0.1-0.2 mm
Sneeuwval
Natte sneeuw
Hagel
Vorst
Onweer
50 mm
40 mm
30 mm
26 mm
22 mm
18 mm
14 mm
10 mm
9 mm
8 mm
7 mm
6 mm
5 mm
4.5 mm
4 mm
3.5 mm
3 mm
2.5 mm
2 mm
1.5 mm
1 mm
0.8 mm
0.6 mm
0.4 mm
0.2 mm
0.05 mm
35°
30°
25°
20°
15°
10°
-5°
-10°
-15°
-20°
-25°
-30°
-35°
33> m/s
29 m/s
25 m/s
21 m/s
17 m/s
14 m/s
11 m/s
8 m/s
5 m/s
3 m/s
0 m/s
2600 J/kg
2400 J/kg
2200 J/kg
2000 J/kg
1800 J/kg
1600 J/kg
1400 J/kg
1200 J/kg
1000 J/kg
800 J/kg
600 J/kg
400 J/kg
200 J/kg
70 dBZ
65 dBZ
60 dBZ
55 dBZ
50 dBZ
45 dBZ
40 dBZ
35 dBZ
30 dBZ
25 dBZ
20 dBZ
15 dBZ
10 dBZ
5 dBZ
-1 K
-2 K
-3 K
-4 K
-5 K
-6 K
-7 K
-8 K
-9 K
950 m²/s²
900 m²/s²
850 m²/s²
800 m²/s²
750 m²/s²
700 m²/s²
650 m²/s²
600 m²/s²
550 m²/s²
500 m²/s²
450 m²/s²
400 m²/s²
350 m²/s²
300 m²/s²
250 m²/s²
200 m²/s²
150 m²/s²
100 m²/s²
46 m/s
44 m/s
42 m/s
40 m/s
38 m/s
36 m/s
34 m/s
32 m/s
30 m/s
28 m/s
26 m/s
24 m/s
22 m/s
20 m/s
16 m/s
12 m/s
8 m/s
4 m/s
30 m/s
28 m/s
26 m/s
24 m/s
22 m/s
20 m/s
18 m/s
16 m/s
14 m/s
12 m/s
10 m/s
8 m/s
6 m/s
4 m/s
2 m/s
3.0
2.8
2.6
2.4
2.2
2.0
1.8
1.6
1.4
1.2
1.0
0.8
0.6
0.4
0.2
15
14
13
12
11
10
9
8
7
6
5
4
3
2
1
90%
80%